This demonstration page uses our WeatherBlox Daily Observations layout. Learn more.

Left ArrowRight Arrow

39.01783, -85.05884

Hourly Observations for March 3, 2017

Temp ( °F °C ) Dew Point ( °F °C ) Humidity (%) Winds ( mph kmh ) Pressure ( in mb ) Visibility ( mi km ) Precip ( " mm )
12:52 am 00:52 Mostly Cloudy 32 0 21 -6.1 64 64 NNW 12 19 30.36 1028 10 16 0.00 0.00
1:52 am 01:52 Cloudy 32 0 18 -7.8 56 56 NW 12 19 30.38 1029 10 16 0.00 0.00
2:52 am 02:52 Clear 30 -1.1 18 -7.8 61 61 WNW 8 13 30.39 1029 10 16 0.00 0.00
3:52 am 03:52 Mostly Cloudy 27 -2.8 18 -7.8 69 69 W 6 9 30.38 1029 10 16 0.00 0.00
4:52 am 04:52 Cloudy 29 -1.7 19 -7.2 66 66 WSW 7 11 30.40 1029 10 16 0.00 0.00
5:52 am 05:52 Cloudy 29 -1.7 20 -6.7 69 69 W 9 15 30.42 1030 10 16 0.00 0.00
6:52 am 06:52 Partly Cloudy 27 -2.8 20 -6.7 75 75 W 8 13 30.44 1031 10 16 0.00 0.00
7:34 am 07:34 Mostly Cloudy with Light Snow 28 -2 21 -6 74 74 NW 16 26 30.50 1033 8 13 0.00 0.00
7:46 am 07:46 Mostly Cloudy 28 -2 21 -6 74 74 WNW 15 24 30.50 1033 9 14 0.00 0.03
7:52 am 07:52 Mostly Cloudy 29 -1.7 20 -6.7 69 69 NW 14 22 30.48 1032 10 16 0.00 0.03
8:52 am 08:52 Partly Cloudy 31 -0.6 19 -7.2 61 61 NNW 20 31 30.51 1033 10 16 0.00 0.00
9:34 am 09:34 Mostly Cloudy with Light Snow 30 -1.1 19 -7.2 64 64 WNW 15 24 30.53 1034 8 13 0.00 0.03
9:52 am 09:52 Mostly Cloudy with Light Snow 32 0 18 -7.8 56 56 NW 17 28 30.54 1034 8 13 0.00 0.03
10:52 am 10:52 Partly Cloudy 33 0.6 15 -9.4 47 47 WNW 20 31 30.56 1035 10 16 0.00 0.03
11:52 am 11:52 Partly Cloudy 35 1.7 12 -11.1 38 38 NW 17 28 30.58 1036 10 16 0.00 0.00
12:52 pm 12:52 Partly Cloudy 36 2.2 11 -11.7 35 35 WNW 20 31 30.58 1036 10 16 0.00 0.00
1:52 pm 13:52 Mostly Sunny 36 2.2 10 -12.2 34 34 W 17 28 30.58 1036 10 16 0.00 0.00
2:52 pm 14:52 Mostly Sunny 37 2.8 10 -12.2 33 33 WNW 15 24 30.58 1036 10 16 0.00 0.00
3:52 pm 15:52 Mostly Sunny 37 2.8 9 -12.8 31 31 NW 17 28 30.58 1036 10 16 0.00 0.00
4:52 pm 16:52 Mostly Sunny 36 2.2 9 -12.8 32 32 WNW 16 26 30.59 1036 10 16 0.00 0.00
5:52 pm 17:52 Sunny 35 1.7 9 -12.8 34 34 WNW 10 17 30.59 1036 10 16 0.00 0.00
6:52 pm 18:52 Mostly Clear 31 -0.6 11 -11.7 43 43 WNW 8 13 30.60 1036 10 16 0.00 0.00
7:52 pm 19:52 Mostly Clear 30 -1.1 10 -12.2 43 43 WNW 3 6 30.59 1036 10 16 0.00 0.00
8:52 pm 20:52 Mostly Clear 30 -1.1 11 -11.7 45 45 NNW 6 9 30.58 1036 10 16 0.00 0.00
9:52 pm 21:52 Mostly Clear 27 -2.8 11 -11.7 51 51 Calm 30.60 1036 10 16 0.00 0.00
10:52 pm 22:52 Mostly Clear 27 -2.8 13 -10.6 55 55 Calm 30.59 1036 10 16 0.00 0.00
11:52 pm 23:52 Mostly Cloudy 29 -1.7 14 -10 54 54 Calm 30.60 1036 10 16 0.00 0.00

Powered by AerisWeather